OBJECT PY

Last updated on Sun Feb 03 2019 00:02:08 GMT+0000 (Coordinated Universal Time)

1 44032U 98067PY 19032.79794132 .00022453 00000-0 34829-3 0 9995 2 44032 51.6429 314.5423 0003540 17.0597 343.0424 15.53898307 217

Satellite not in orbit